Location: Lancaster
(54.0470°N, 2.8020°W)
Time: 20:10:04
(UTC+01:00)

COSMOS 2428 - Visible Passes

Search period start: 24 April 2017 00:00
Search period end: 04 May 2017 00:00
Orbit: 846 x 857 km, 70.9° (Epoch: 23 April)

Date Brightness Start Highest point End Pass type
(mag) Time Alt. Az. Time Alt. Az. Time Alt. Az.
24 Apr 4.5 01:42:34 10° W 01:47:23 27° NW 01:52:15 10° NNE visible
24 Apr 5.3 03:30:29 10° NW 03:33:43 15° N 03:36:58 10° NNE visible
24 Apr 4.0 22:04:24 17° SE 22:06:39 21° E 22:10:48 10° NE visible
24 Apr 2.7 23:46:20 21° SSW 23:50:14 87° WNW 23:56:00 10° NNE visible
25 Apr 4.6 01:30:29 10° W 01:35:19 27° NW 01:40:10 10° NNE visible
25 Apr 5.3 03:18:24 10° NW 03:21:39 15° N 03:24:55 10° NNE visible
25 Apr 5.3 05:04:28 10° NNW 05:08:21 18° NNE 05:12:13 10° ENE visible
25 Apr 4.0 21:51:19 13° SE 21:54:34 21° E 21:58:43 10° NE visible
25 Apr 2.7 23:33:14 14° SSW 23:38:10 87° WNW 23:43:55 10° NNE visible
26 Apr 4.6 01:18:26 10° W 01:23:14 27° NW 01:28:06 10° NNE visible
26 Apr 5.4 03:06:20 10° NW 03:09:35 15° N 03:12:50 10° NNE visible
26 Apr 5.3 04:52:24 10° NNW 04:56:16 18° NNE 05:00:08 10° ENE visible
26 Apr 3.9 21:38:22 10° SSE 21:42:30 21° E 21:46:39 10° NE visible
26 Apr 2.7 23:20:23 10° SSW 23:26:05 87° WNW 23:31:51 10° NNE visible
27 Apr 4.6 01:06:21 10° W 01:11:10 27° NW 01:16:02 10° NNE visible
27 Apr 5.4 02:54:16 10° NW 02:57:31 15° N 03:00:46 10° NNE visible
27 Apr 5.4 04:40:20 10° NNW 04:44:12 18° NNE 04:48:05 10° ENE visible
27 Apr 3.9 21:26:17 10° SSE 21:30:26 21° E 21:34:35 10° NE visible
27 Apr 2.7 23:08:18 10° SSW 23:14:01 87° WNW 23:19:47 10° NNE visible
28 Apr 4.7 00:54:17 10° W 00:59:06 27° NW 01:03:57 10° NNE visible
28 Apr 5.4 02:42:12 10° NW 02:45:26 15° N 02:48:42 10° NNE visible
28 Apr 5.4 04:28:16 10° NNW 04:32:08 18° NNE 04:36:00 10° ENE visible
28 Apr 3.9 21:14:12 10° SSE 21:18:21 21° ESE 21:22:31 10° NE visible
28 Apr 2.7 22:56:14 10° SSW 23:01:56 86° WNW 23:07:43 10° NNE visible
29 Apr 4.7 00:42:13 10° W 00:47:01 27° NW 00:51:53 10° NNE visible
29 Apr 5.5 02:30:08 10° NW 02:33:22 15° N 02:36:38 10° NNE visible
29 Apr 5.4 04:16:11 10° NNW 04:20:04 18° NNE 04:23:56 10° ENE visible
29 Apr 2.7 22:44:09 10° SSW 22:49:52 86° WNW 22:55:38 10° NNE visible
30 Apr 4.8 00:30:08 10° W 00:34:58 27° NW 00:39:49 10° NNE visible
30 Apr 5.5 02:18:04 10° NW 02:21:19 15° N 02:24:33 10° NNE visible
30 Apr 5.5 04:04:07 10° NNW 04:07:59 18° NNE 04:11:52 10° ENE visible
30 Apr 2.8 22:32:05 10° SSW 22:37:48 86° WNW 22:43:33 10° NNE visible
01 May 4.8 00:18:05 10° W 00:22:53 27° NW 00:27:44 10° NNE visible
01 May 5.6 02:05:59 10° NW 02:09:14 15° N 02:12:29 10° NNE visible
01 May 5.5 03:52:03 10° NNW 03:55:56 18° NNE 03:59:48 10° ENE visible
01 May 2.8 22:20:01 10° SSW 22:25:43 86° WNW 22:31:30 10° NNE visible
02 May 4.8 00:06:00 10° W 00:10:49 27° NW 00:15:39 10° NNE visible
02 May 5.6 01:53:55 10° NW 01:57:10 15° N 02:00:25 10° NNE visible
02 May 5.6 03:39:58 10° NNW 03:43:51 18° NNE 03:47:45 10° ENE visible
02 May 2.8 22:07:55 10° SSW 22:13:39 86° WNW 22:19:25 10° NNE visible
02 May 4.9 23:53:56 10° W 23:58:45 27° NW 00:03:35 10° NNE visible
03 May 5.7 01:41:51 10° NW 01:45:06 15° N 01:48:20 10° NNE visible
03 May 5.6 03:27:53 10° NNW 03:31:47 18° NNE 03:35:40 10° ENE visible
03 May 2.8 21:55:51 10° SSW 22:01:34 86° WNW 22:07:21 10° NNE visible
03 May 4.9 23:41:52 10° W 23:46:41 27° NW 23:51:31 10° NNE visible
